Location: Stara Lesna
(49.1528°N, 20.2911°E)
Time: 19:01:34
(UTC+02:00)

Cosmos 1862 - Pass Details

Date: 13 July 2020
Orbit: 539 x 555 km, 82.5° (Epoch: 11 August)

Event Time Altitude Azimuth Distance (km) Brightness Sun altitude
Exits shadow 00:22:32 46° 146° (SE) 740 3.5 -18.9°
Maximum altitude 00:23:25 59° 96° (E) 635 3.5 -18.9°
Drops below altitude 10° 00:27:22 10° 17° (NNE) 1,829 7.0 -18.9°
Sets 00:29:34 0° 13° (NNE) 2,731 8.3 -19.0°
